Date Time,Air Temp,Sky Temp,Clarity,Light Level,Rain Sensor,Readings
2011-02-04 00:00:34,15.9,1.8,14.2,0.0,2.6,111
2011-02-04 00:05:34,15.9,1.4,14.4,0.0,3.6,111
2011-02-04 00:10:34,15.7,1.9,13.9,0.0,2.6,111
2011-02-04 00:15:34,15.7,1.7,14.0,0.0,2.3,111
2011-02-04 00:20:34,15.8,1.7,14.0,0.0,3.1,112
2011-02-04 00:25:34,15.7,1.2,14.5,0.0,6.7,111
2011-02-04 00:30:34,15.5,1.2,14.3,0.0,9.1,111
2011-02-04 00:35:34,15.2,2.0,13.2,0.0,15.4,111
2011-02-04 00:40:34,15.2,3.8,11.4,0.0,20.8,112
2011-02-04 00:45:34,15.1,2.5,12.6,0.0,25.6,111
2011-02-04 00:50:34,15.1,1.0,14.2,0.0,12.9,111
2011-02-04 00:55:34,15.3,1.7,13.7,0.0,16.6,111
2011-02-04 01:00:34,15.3,1.6,13.7,0.0,10.4,112
2011-02-04 01:05:34,15.4,1.8,13.6,0.0,4.3,111
2011-02-04 01:10:34,15.4,1.9,13.5,0.0,3.3,110
2011-02-04 01:15:34,15.4,2.2,13.2,0.0,3.1,111
2011-02-04 01:20:34,15.4,2.1,13.3,0.0,3.2,111
2011-02-04 01:25:34,15.5,1.8,13.6,0.0,4.0,111
2011-02-04 01:30:34,15.4,2.2,13.2,0.0,3.8,112
2011-02-04 01:35:34,15.4,2.4,13.0,0.0,3.4,111
2011-02-04 01:40:34,15.4,2.4,13.1,0.0,3.4,111
2011-02-04 01:45:34,15.4,2.5,12.9,0.0,3.3,111
2011-02-04 01:50:34,15.5,2.4,13.1,0.0,3.3,111
2011-02-04 01:55:34,15.2,2.1,13.1,0.0,3.4,112
2011-02-04 02:00:34,15.6,2.3,13.3,0.0,3.4,111
2011-02-04 02:05:34,15.6,2.4,13.2,0.0,3.4,111
2011-02-04 02:10:34,15.6,2.3,13.3,0.0,3.4,111
2011-02-04 02:15:34,15.6,2.4,13.2,0.0,3.6,111
2011-02-04 02:20:34,15.6,2.4,13.2,0.0,3.6,112
2011-02-04 02:25:34,15.6,2.3,13.3,0.0,4.6,111
2011-02-04 02:30:34,15.6,1.5,14.0,0.0,7.6,111
2011-02-04 02:35:34,15.5,1.9,13.6,0.0,6.6,111
2011-02-04 02:40:34,15.5,2.0,13.5,0.0,5.4,111
2011-02-04 02:45:34,15.5,2.2,13.3,0.0,4.8,112
2011-02-04 02:50:34,15.5,2.0,13.5,0.0,4.7,111
2011-02-04 02:55:34,15.5,2.3,13.2,0.0,5.0,111
2011-02-04 03:00:34,15.5,2.0,13.5,0.0,5.9,111
2011-02-04 03:05:34,15.5,1.6,13.9,0.0,8.0,111
2011-02-04 03:10:34,15.6,1.9,13.6,0.0,8.6,111
2011-02-04 03:15:34,15.5,2.2,13.3,0.0,7.3,111
2011-02-04 03:20:34,15.5,2.2,13.3,0.0,6.8,111
2011-02-04 03:25:34,15.5,2.0,13.5,0.0,7.7,112
2011-02-04 03:30:34,15.6,1.8,13.7,0.0,7.4,111
2011-02-04 03:35:34,15.6,2.1,13.5,0.0,5.5,111
2011-02-04 03:40:34,15.6,2.5,13.1,0.0,5.0,112
2011-02-04 03:45:34,15.6,2.7,12.9,0.0,5.0,111
2011-02-04 03:50:34,15.6,2.6,13.0,0.0,5.0,111
2011-02-04 03:55:34,15.7,2.7,13.0,0.0,5.1,111
2011-02-04 04:00:34,15.7,2.5,13.2,0.0,5.2,111
2011-02-04 04:05:34,15.7,2.5,13.2,0.0,5.2,112
2011-02-04 04:10:34,15.8,2.4,13.4,0.0,5.1,111
2011-02-04 04:15:34,15.5,2.9,12.6,0.0,5.2,111
2011-02-04 04:20:34,15.8,2.8,13.0,0.0,5.2,111
2011-02-04 04:25:34,15.9,2.6,13.3,0.0,5.5,111
2011-02-04 04:30:34,15.8,1.8,14.0,0.0,13.0,111
2011-02-04 04:35:34,15.7,2.0,13.7,0.0,17.2,111
2011-02-04 04:40:34,15.8,2.1,13.7,0.0,11.6,112
2011-02-04 04:45:34,15.6,1.8,13.8,0.0,10.8,111
2011-02-04 04:50:34,15.6,1.8,13.8,0.0,12.3,111
2011-02-04 04:55:34,15.6,2.0,13.6,0.0,17.8,111
2011-02-04 05:00:34,15.6,2.7,12.9,0.0,14.3,111
2011-02-04 05:05:34,15.6,2.5,13.1,0.0,9.2,111
2011-02-04 05:10:34,15.6,2.7,12.8,0.0,8.6,112
2011-02-04 05:15:34,15.6,3.1,12.5,0.0,8.0,111
2011-02-04 05:20:34,15.6,2.9,12.7,0.0,7.8,112
2011-02-04 05:25:34,15.6,3.1,12.5,0.0,7.4,111
2011-02-04 05:30:34,15.7,3.0,12.7,0.0,7.4,111
2011-02-04 05:35:34,15.7,2.7,12.9,0.0,8.5,112
2011-02-04 05:40:34,15.7,2.7,13.0,0.0,10.1,111
2011-02-04 05:45:34,15.7,2.6,13.1,0.0,10.3,111
2011-02-04 05:50:34,15.7,3.0,12.7,0.0,10.2,111
2011-02-04 05:55:34,15.7,2.9,12.8,0.0,10.4,112
2011-02-04 06:00:34,15.7,3.2,12.5,0.0,10.0,111
2011-02-04 06:05:34,15.7,3.4,12.4,0.0,9.5,112
2011-02-04 06:10:34,15.8,3.5,12.3,0.0,9.2,111
2011-02-04 06:15:34,15.8,3.4,12.4,0.0,9.4,112
2011-02-04 06:20:34,15.8,3.6,12.3,0.0,9.0,111
2011-02-04 06:25:34,15.9,3.3,12.6,0.0,9.0,112
2011-02-04 06:30:34,15.9,3.2,12.8,0.0,8.7,111
2011-02-04 06:35:35,16.0,2.7,13.3,0.0,11.6,110
2011-02-04 06:40:35,16.0,2.7,13.3,0.0,14.9,112
2011-02-04 06:45:35,15.9,2.4,13.5,0.1,15.8,111
2011-02-04 06:50:35,15.9,2.5,13.4,0.1,20.2,111
2011-02-04 06:55:35,15.9,2.3,13.5,0.4,17.4,111
2011-02-04 07:00:35,15.9,2.8,13.1,1.0,15.5,112
2011-02-04 07:05:35,15.9,2.8,13.1,2.3,16.8,111
2011-02-04 07:10:35,15.9,3.1,12.8,4.2,16.1,111
2011-02-04 07:15:35,15.9,3.6,12.3,7.5,13.5,111
2011-02-04 07:20:35,15.9,3.1,12.9,12.6,15.3,112
2011-02-04 07:25:35,15.9,3.2,12.7,17.9,12.6,111
2011-02-04 07:30:35,15.9,3.4,12.5,21.3,12.6,111
2011-02-04 07:35:35,15.9,3.2,12.8,23.9,12.6,111
2011-02-04 07:40:35,16.0,3.1,12.9,25.6,13.4,111
2011-02-04 07:45:35,16.0,3.4,12.6,26.5,13.4,112
2011-02-04 07:50:35,16.1,3.1,13.0,28.1,15.8,111
2011-02-04 07:55:35,16.0,2.3,13.7,29.1,22.7,112
2011-02-04 08:00:35,16.0,3.2,12.8,29.5,17.0,111
2011-02-04 08:05:35,16.0,3.2,12.8,30.2,13.3,111
2011-02-04 08:10:35,16.0,3.3,12.7,30.3,14.6,111
2011-02-04 08:15:35,16.0,3.7,12.3,31.2,12.3,112
2011-02-04 08:20:35,16.1,3.4,12.6,31.4,11.2,111
2011-02-04 08:25:35,16.1,3.4,12.8,31.5,10.9,111
2011-02-04 08:30:35,16.2,3.7,12.5,31.4,10.9,112
2011-02-04 08:35:35,16.2,3.7,12.5,31.6,10.8,111
2011-02-04 08:40:35,16.2,3.5,12.7,31.6,10.5,111
2011-02-04 08:45:35,16.1,3.3,12.8,31.8,10.4,112
2011-02-04 08:50:35,16.2,3.2,12.9,31.8,10.5,111
2011-02-04 08:55:35,16.1,3.2,12.9,31.8,10.9,111
2011-02-04 09:00:35,16.1,3.3,12.8,31.8,10.7,111
2011-02-04 09:05:35,16.2,3.3,12.9,31.9,10.7,111
2011-02-04 09:10:35,16.2,3.2,13.1,32.0,10.8,112
2011-02-04 09:15:35,16.3,3.0,13.3,32.1,10.7,111
2011-02-04 09:20:35,16.3,3.0,13.3,32.0,10.8,112
2011-02-04 09:25:35,16.3,2.6,13.7,32.1,11.0,111
2011-02-04 09:30:35,16.3,2.9,13.4,32.1,11.1,111
2011-02-04 09:35:35,16.3,2.5,13.8,32.1,11.4,112
2011-02-04 09:40:35,16.3,2.6,13.7,32.1,13.0,111
2011-02-04 09:45:35,16.2,2.3,13.9,32.2,16.2,111
2011-02-04 09:50:35,16.1,1.4,14.8,32.2,20.7,111
2011-02-04 09:55:35,16.1,2.1,14.0,32.2,20.3,111
2011-02-04 10:00:35,16.1,1.8,14.3,32.2,24.1,111
2011-02-04 10:05:35,16.1,2.0,14.1,32.2,23.0,111
2011-02-04 10:10:35,16.1,2.5,13.6,32.1,21.5,111
2011-02-04 10:15:35,16.1,3.2,12.9,32.2,17.5,111
2011-02-04 10:20:35,16.1,3.2,12.9,32.3,15.8,111
2011-02-04 10:25:35,16.2,2.8,13.4,32.2,14.7,112
2011-02-04 10:30:35,16.3,2.6,13.6,32.1,15.3,111
2011-02-04 10:35:35,16.2,2.8,13.4,32.1,15.9,111
2011-02-04 10:40:35,16.2,2.9,13.3,32.1,16.2,111
2011-02-04 10:45:35,16.2,3.1,13.1,32.2,15.6,111
2011-02-04 10:50:35,16.2,2.7,13.5,32.2,17.4,111
2011-02-04 10:55:35,16.2,2.8,13.3,32.1,17.8,112
2011-02-04 11:00:35,16.1,3.0,13.1,32.2,17.4,110
2011-02-04 11:05:35,16.2,3.2,13.0,32.3,15.7,111
2011-02-04 11:10:35,16.3,2.9,13.3,32.3,16.2,112
2011-02-04 11:15:35,16.3,2.9,13.4,32.3,16.2,111
2011-02-04 11:20:35,16.4,3.0,13.4,32.3,16.3,111
2011-02-04 11:25:35,16.5,3.1,13.4,32.3,15.7,111
2011-02-04 11:30:35,16.5,2.7,13.8,32.4,15.8,111
2011-02-04 11:35:35,16.6,3.1,13.5,32.4,15.1,111
2011-02-04 11:40:35,16.7,2.9,13.8,32.4,15.4,111
2011-02-04 11:45:35,16.8,3.2,13.6,32.4,15.4,111
2011-02-04 11:50:35,16.8,3.0,13.8,32.4,16.4,111
2011-02-04 11:55:35,16.8,3.4,13.4,32.4,15.9,112
2011-02-04 12:00:35,16.8,3.1,13.7,32.4,15.5,111
2011-02-04 12:05:35,16.8,3.4,13.4,32.4,15.5,111
2011-02-04 12:10:35,16.8,3.7,13.1,32.3,15.3,111
2011-02-04 12:15:35,16.8,3.5,13.3,32.4,15.3,112
2011-02-04 12:20:35,16.5,3.6,12.9,32.4,15.0,111
2011-02-04 12:25:35,16.8,3.3,13.5,32.4,15.1,112
2011-02-04 12:30:35,16.8,3.2,13.6,32.4,14.9,111
2011-02-04 12:35:35,16.8,3.2,13.6,32.4,15.0,111
2011-02-04 12:40:35,16.8,3.3,13.5,32.4,15.2,111
2011-02-04 12:45:35,16.8,3.3,13.5,32.4,14.9,112
2011-02-04 12:50:35,16.8,3.1,13.8,32.4,15.1,111
2011-02-04 12:55:35,16.9,3.3,13.6,32.4,14.8,111
2011-02-04 13:00:35,16.9,3.3,13.6,32.4,14.9,112
2011-02-04 13:05:35,16.9,3.5,13.4,32.4,15.0,111
2011-02-04 13:10:35,16.9,3.5,13.5,32.4,14.7,112
2011-02-04 13:15:35,17.0,3.3,13.7,32.5,14.5,111
2011-02-04 13:20:35,17.0,3.6,13.4,32.4,15.0,111
2011-02-04 13:25:35,17.0,3.3,13.7,32.3,14.3,112
2011-02-04 13:30:35,17.0,3.5,13.5,32.3,14.8,111
2011-02-04 13:35:35,16.9,3.2,13.7,32.3,15.0,112
2011-02-04 13:40:35,16.9,3.4,13.6,32.3,15.0,111
2011-02-04 13:45:35,16.9,3.5,13.4,32.2,14.6,111
2011-02-04 13:50:35,16.9,3.5,13.4,32.2,14.4,111
2011-02-04 13:55:35,16.9,3.4,13.5,32.2,14.5,112
2011-02-04 14:00:35,16.9,3.6,13.3,32.2,14.7,111
2011-02-04 14:05:35,16.9,3.6,13.2,32.2,14.7,111
2011-02-04 14:10:35,16.9,3.6,13.3,32.2,14.7,111
2011-02-04 14:15:35,16.9,3.7,13.1,32.2,14.6,111
2011-02-04 14:20:35,16.9,3.6,13.2,32.2,14.6,112
2011-02-04 14:25:35,16.8,3.6,13.3,32.1,14.8,111
2011-02-04 14:30:35,16.8,3.7,13.1,32.2,14.7,111
2011-02-04 14:35:35,16.8,3.6,13.2,32.1,14.7,112
2011-02-04 14:40:35,16.8,3.7,13.1,32.1,14.6,111
2011-02-04 14:45:35,16.8,3.8,13.0,32.1,14.5,111
2011-02-04 14:50:35,16.7,4.0,12.8,32.0,14.5,112
2011-02-04 14:55:35,16.7,3.9,12.8,32.0,14.3,111
2011-02-04 15:00:35,16.6,3.5,13.1,31.9,14.4,112
2011-02-04 15:05:35,16.5,3.6,13.0,31.8,14.2,111
2011-02-04 15:10:35,16.5,3.5,13.0,31.8,14.5,112
2011-02-04 15:15:35,16.4,3.5,13.0,31.7,15.0,111
2011-02-04 15:20:35,16.4,3.4,13.0,31.6,14.6,111
2011-02-04 15:25:35,16.4,3.3,13.1,31.4,14.7,112
2011-02-04 15:30:35,16.0,3.0,13.0,31.5,15.6,111
2011-02-04 15:35:35,16.2,2.9,13.4,31.6,17.1,111
2011-02-04 15:40:35,16.1,2.8,13.3,31.6,16.8,112
2011-02-04 15:45:35,16.1,3.1,13.0,31.6,15.8,111
2011-02-04 15:50:35,16.1,3.1,13.0,31.7,15.8,112
2011-02-04 15:55:35,16.1,3.3,12.9,31.6,15.9,111
2011-02-04 16:00:35,16.1,3.4,12.7,31.7,16.0,111
2011-02-04 16:05:35,16.2,3.0,13.2,31.6,17.6,112
2011-02-04 16:10:35,16.2,3.5,12.7,31.3,17.0,111
2011-02-04 16:15:35,16.2,3.0,13.2,31.2,18.5,112
2011-02-04 16:20:35,16.1,3.1,13.0,30.9,19.3,111
2011-02-04 16:25:35,16.0,2.6,13.5,30.7,21.0,111
2011-02-04 16:30:35,15.9,2.3,13.7,30.5,22.5,112
2011-02-04 16:35:35,15.9,2.0,13.9,30.2,21.3,111
2011-02-04 16:40:35,15.9,2.6,13.3,29.7,19.0,111
2011-02-04 16:45:35,15.9,2.6,13.3,28.9,17.6,111
2011-02-04 16:50:35,15.9,3.0,12.9,27.9,16.6,112
2011-02-04 16:55:35,15.9,2.8,13.2,26.2,16.0,111
2011-02-04 17:00:35,16.0,2.8,13.2,24.1,16.4,111
2011-02-04 17:05:35,16.0,2.6,13.4,22.0,17.0,111
2011-02-04 17:10:35,16.0,2.4,13.6,18.9,19.2,111
2011-02-04 17:15:35,15.9,2.1,13.9,15.2,20.2,112
2011-02-04 17:20:35,15.9,2.1,13.8,11.3,21.8,111
2011-02-04 17:25:35,15.8,2.2,13.6,6.2,21.5,111
2011-02-04 17:30:35,15.5,2.7,12.8,4.1,19.7,111
2011-02-04 17:35:35,15.8,2.6,13.2,1.9,19.3,112
2011-02-04 17:40:35,15.5,2.4,13.2,1.0,19.7,111
2011-02-04 17:45:35,15.8,2.2,13.6,0.4,21.3,111
2011-02-04 17:50:35,15.8,3.0,12.8,0.2,19.2,111
2011-02-04 17:55:35,15.8,2.8,13.1,0.1,18.1,111
2011-02-04 18:00:35,15.9,2.8,13.1,0.0,19.8,111
2011-02-04 18:05:35,15.9,2.9,13.0,0.0,19.8,111
2011-02-04 18:10:35,15.9,3.0,12.9,0.0,18.7,111
2011-02-04 18:15:35,15.9,2.9,13.0,0.0,17.9,111
2011-02-04 18:20:35,15.9,3.1,12.8,0.0,17.2,112
2011-02-04 18:25:35,16.0,3.1,12.9,0.0,16.9,111
2011-02-04 18:30:35,16.0,3.1,12.9,0.0,16.6,111
2011-02-04 18:35:35,16.1,2.7,13.4,0.0,16.7,112
2011-02-04 18:40:35,16.1,2.6,13.5,0.0,16.8,111
2011-02-04 18:45:35,16.1,2.9,13.2,0.0,16.8,112
2011-02-04 18:50:35,16.1,2.8,13.3,0.0,16.1,111
2011-02-04 18:55:35,16.1,2.8,13.3,0.0,16.0,111
2011-02-04 19:00:35,16.2,3.3,12.9,0.0,16.1,111
2011-02-04 19:05:35,16.2,3.0,13.2,0.0,16.6,111
2011-02-04 19:10:35,16.2,3.2,13.0,0.0,15.9,111
2011-02-04 19:15:35,16.2,3.1,13.1,0.0,16.4,112
2011-02-04 19:20:35,16.2,3.1,13.1,0.0,16.5,111
2011-02-04 19:25:35,16.2,3.3,12.8,0.0,16.8,111
2011-02-04 19:30:35,16.1,3.0,13.1,0.0,16.6,111
2011-02-04 19:35:35,15.8,3.2,12.7,0.0,16.8,112
2011-02-04 19:40:35,16.1,3.1,13.0,0.0,16.9,111
2011-02-04 19:45:35,16.1,2.9,13.3,0.0,16.7,112
2011-02-04 19:50:35,16.2,3.1,13.1,0.0,17.4,111
2011-02-04 19:55:35,16.2,3.2,12.9,0.0,17.2,111
2011-02-04 20:00:35,16.2,3.3,12.9,0.0,17.2,112
2011-02-04 20:05:35,16.2,3.1,13.1,0.0,17.1,111
2011-02-04 20:10:35,16.3,3.4,12.8,0.0,17.4,111
2011-02-04 20:15:35,16.3,2.9,13.4,0.0,17.5,112
2011-02-04 20:20:35,16.3,2.9,13.5,0.0,18.7,111
2011-02-04 20:25:35,16.3,2.7,13.6,0.0,19.3,111
2011-02-04 20:30:35,16.3,2.5,13.7,0.0,21.7,112
2011-02-04 20:35:35,16.2,2.9,13.3,0.0,22.6,111
2011-02-04 20:40:35,16.1,2.7,13.4,0.0,23.7,111
2011-02-04 20:45:35,16.1,2.3,13.7,0.0,24.6,111
2011-02-04 20:50:35,16.1,2.4,13.6,0.0,25.2,111
2011-02-04 20:55:35,16.1,2.2,13.8,0.0,26.3,111
2011-02-04 21:00:35,16.1,2.4,13.6,0.0,26.4,112
2011-02-04 21:05:35,16.0,2.2,13.8,0.0,28.3,111
2011-02-04 21:10:35,15.9,2.5,13.5,0.0,28.0,111
2011-02-04 21:15:35,15.9,2.1,13.9,0.0,29.5,111
2011-02-04 21:20:35,16.0,2.3,13.7,0.0,30.5,111
2011-02-04 21:25:35,16.0,2.6,13.4,0.0,28.1,111
2011-02-04 21:30:35,16.0,2.8,13.2,0.0,26.0,111
2011-02-04 21:35:35,15.9,2.8,13.2,0.0,25.6,111
2011-02-04 21:40:35,15.9,2.9,13.0,0.0,26.0,112
2011-02-04 21:45:36,15.9,2.7,13.2,0.0,27.2,111
2011-02-04 21:50:36,15.9,3.3,12.6,0.0,26.7,111
2011-02-04 21:55:36,15.9,3.0,12.9,0.0,25.6,111
2011-02-04 22:00:36,15.9,3.3,12.7,0.0,25.3,112
2011-02-04 22:05:36,15.9,3.6,12.3,0.0,23.7,111
2011-02-04 22:10:36,16.0,3.5,12.5,0.0,22.6,112
2011-02-04 22:15:36,16.0,3.5,12.5,0.0,22.1,111
2011-02-04 22:20:36,16.1,3.5,12.6,0.0,21.5,112
2011-02-04 22:25:36,16.1,3.5,12.6,0.0,21.0,111
2011-02-04 22:30:36,16.1,3.6,12.5,0.0,20.9,111
2011-02-04 22:35:36,16.1,3.7,12.4,0.0,20.5,112
2011-02-04 22:40:36,16.2,3.7,12.5,0.0,20.2,112
2011-02-04 22:45:36,16.2,3.7,12.6,0.0,20.6,111
2011-02-04 22:50:36,16.3,3.7,12.6,0.0,21.3,111
2011-02-04 22:55:36,16.2,3.5,12.8,0.0,21.6,112
2011-02-04 23:00:36,16.2,3.7,12.5,0.0,22.1,110
2011-02-04 23:05:36,16.2,3.5,12.7,0.0,22.9,112
2011-02-04 23:10:36,16.2,3.6,12.6,0.0,23.7,111
2011-02-04 23:15:36,16.2,3.5,12.7,0.0,24.3,112
2011-02-04 23:20:36,16.1,3.4,12.8,0.0,25.2,111
2011-02-04 23:25:36,16.1,3.6,12.5,0.0,26.1,112
2011-02-04 23:30:36,16.1,3.3,12.7,0.0,25.7,111
2011-02-04 23:35:36,16.1,3.0,13.1,0.0,26.8,111
2011-02-04 23:40:36,16.1,3.3,12.8,0.0,26.6,112
2011-02-04 23:45:36,16.1,2.9,13.2,0.0,27.0,111
2011-02-04 23:50:36,16.1,3.0,13.1,0.0,26.5,111
2011-02-04 23:55:36,16.1,2.8,13.3,0.0,28.0,112
